Killeen/Ft Hood, TX

1:58 AM CDT on May 28, 2017 (GMT -0500)
Hood Army Air Field

Weather History for KHLR - September, 2014

Change the Weather History Date:

Saturday, September 20, 2014

  Actual Average Record
Temperature  
Mean Temperature 82 °F -  
Max Temperature 89 °F 86 °F 96 °F (1999)
Min Temperature 75 °F 66 °F 59 °F (2002)
Cooling Degree Days 16    
Growing Degree Days 32 (Base 50)    
Moisture  
Dew Point 72 °F    
Average Humidity 82    
Maximum Humidity 94    
Minimum Humidity 57    
Precipitation  
Precipitation 0.00 in - - ()
Sea Level Pressure  
Sea Level Pressure 29.99 in    
Wind  
Wind Speed 5 mph (ESE)    
Max Wind Speed 8 mph    
Max Gust Speed -    
Visibility 10 miles    
Events      
Averages and records for this station are not official NWS values.
T = Trace of Precipitation, MM = Missing Value Source: NWS Daily Summary

Daily Weather History Graph

Daily Weather History Graph

Search for Another Location

Airport or City:

Trip Planner

Search our weather history database for the weather conditions in past years. The results will help you decide how hot, cold, wet, or windy it might be!

Date:

Astronomy

Sep. 20, 2014 Rise Set
Actual Time 7:17 AM CDT 7:29 PM CDT
Civil Twilight 6:53 AM CDT 7:54 PM CDT
Nautical Twilight 6:25 AM CDT 8:22 PM CDT
Astronomical Twilight 5:56 AM CDT 8:50 PM CDT
Moon 4:08 AM CDT (9/20) 5:25 PM CDT (9/20)
Length of Visible Light 13h 00m
Length of Day
12h 12m
Waning Crescent, 11% of the Moon is Illuminated
Sep 20
Waning Crescent
Sep 24
New
Oct 1
First Quarter
Oct 8
Full
Oct 15
Last Quarter

Hourly Weather History & Observations

Time (CDT) Temp. Heat Index Dew Point Humidity Pressure Visibility Wind Dir Wind Speed Gust Speed Precip Events Conditions
12:12 AM 75.2 °F - 71.6 °F 89% 29.96 in 10.0 mi East 3.5 mph - N/A   Mostly Cloudy
12:25 AM 75.2 °F - 71.6 °F 89% 29.96 in 10.0 mi ESE 4.6 mph - N/A   Mostly Cloudy
12:32 AM 75.2 °F - 71.6 °F 89% 29.96 in 10.0 mi ESE 3.5 mph - N/A   Mostly Cloudy
12:43 AM 75.2 °F - 71.6 °F 89% 29.95 in 10.0 mi East 4.6 mph - N/A   Mostly Cloudy
12:51 AM 75.2 °F - 71.6 °F 89% 29.95 in 10.0 mi East 5.8 mph - N/A   Mostly Cloudy
12:56 AM 75.9 °F - 73.0 °F 91% 29.95 in 10.0 mi East 5.8 mph - N/A   Mostly Cloudy
1:07 AM 75.2 °F - 71.6 °F 89% 29.95 in 10.0 mi East 4.6 mph - N/A   Scattered Clouds
1:30 AM 75.2 °F - 73.4 °F 94% 29.95 in 10.0 mi East 4.6 mph - N/A   Mostly Cloudy
1:56 AM 75.9 °F - 73.0 °F 91% 29.95 in 10.0 mi East 4.6 mph - N/A   Overcast
2:10 AM 75.2 °F - 73.4 °F 94% 29.95 in 10.0 mi ESE 4.6 mph - N/A   Mostly Cloudy
2:17 AM 75.2 °F - 73.4 °F 94% 29.95 in 10.0 mi ESE 5.8 mph - N/A   Mostly Cloudy
2:56 AM 75.9 °F - 73.0 °F 91% 29.95 in 10.0 mi ESE 4.6 mph - N/A   Overcast
3:05 AM 75.2 °F - 73.4 °F 94% 29.96 in 10.0 mi ESE 4.6 mph - N/A   Overcast
3:56 AM 75.9 °F - 73.0 °F 91% 30.01 in 10.0 mi SE 4.6 mph - N/A   Overcast
4:42 AM 75.2 °F - 73.4 °F 94% 29.94 in 10.0 mi ESE 4.6 mph - N/A   Overcast
4:56 AM 75.9 °F - 73.0 °F 91% 29.94 in 10.0 mi SE 5.8 mph - N/A   Overcast
5:17 AM 75.2 °F - 73.4 °F 94% 29.94 in 10.0 mi ESE 5.8 mph - N/A   Overcast
5:56 AM 75.0 °F - 73.0 °F 94% 30.02 in 10.0 mi ESE 4.6 mph - N/A   Mostly Cloudy
6:01 AM 75.2 °F - 73.4 °F 94% 29.96 in 10.0 mi SE 5.8 mph - N/A   Mostly Cloudy
6:10 AM 75.2 °F - 73.4 °F 94% 29.96 in 10.0 mi ESE 3.5 mph - N/A   Mostly Cloudy
6:18 AM 75.2 °F - 73.4 °F 94% 29.96 in 10.0 mi SE 4.6 mph - N/A   Overcast
6:56 AM 75.9 °F - 72.0 °F 87% 30.03 in 10.0 mi ESE 5.8 mph - N/A   Overcast
7:17 AM 75.2 °F - 71.6 °F 89% 29.97 in 10.0 mi ESE 4.6 mph - N/A   Overcast
7:56 AM 75.9 °F - 72.0 °F 87% 30.05 in 10.0 mi East 6.9 mph - N/A   Overcast
8:29 AM 75.2 °F - 73.4 °F 94% 29.99 in 10.0 mi ESE 4.6 mph - N/A   Overcast
8:39 AM 75.2 °F - 73.4 °F 94% 29.99 in 10.0 mi ESE 5.8 mph - N/A   Overcast
8:53 AM 77.0 °F - 73.4 °F 89% 29.99 in 10.0 mi East 5.8 mph - N/A   Overcast
8:56 AM 77.0 °F - 73.0 °F 88% 30.06 in 10.0 mi East 5.8 mph - N/A   Overcast
9:44 AM 78.8 °F - 73.4 °F 83% 30.00 in 10.0 mi East 8.1 mph - N/A   Overcast
9:56 AM 78.1 °F - 73.0 °F 84% 30.07 in 10.0 mi ESE 6.9 mph - N/A   Overcast
10:03 AM 78.8 °F - 73.4 °F 83% 30.01 in 10.0 mi East 5.8 mph - N/A   Overcast
10:19 AM 78.8 °F - 73.4 °F 83% 30.02 in 10.0 mi East 5.8 mph - N/A   Overcast
10:45 AM 80.6 °F 85.4 °F 73.4 °F 79% 30.02 in 10.0 mi East 6.9 mph - N/A   Overcast
10:56 AM 80.1 °F 83.8 °F 72.0 °F 76% 30.08 in 10.0 mi East 5.8 mph - N/A   Overcast
11:21 AM 82.4 °F 87.2 °F 71.6 °F 70% 30.02 in 10.0 mi ESE 6.9 mph - N/A   Overcast
11:56 AM 82.9 °F 88.0 °F 72.0 °F 69% 30.08 in 10.0 mi Variable 3.5 mph - N/A   Overcast
12:56 PM 86.0 °F 91.5 °F 71.1 °F 61% 30.06 in 10.0 mi ESE 6.9 mph - N/A   Overcast
1:56 PM 84.9 °F 90.1 °F 71.1 °F 63% 30.06 in 10.0 mi ESE 5.8 mph - N/A   Overcast
2:56 PM 84.9 °F 90.1 °F 71.1 °F 63% 29.97 in 10.0 mi East 5.8 mph - N/A   Overcast
3:56 PM 88.0 °F 93.8 °F 71.1 °F 57% 29.94 in 10.0 mi East 6.9 mph - N/A   Scattered Clouds
4:56 PM 87.1 °F 92.0 °F 70.0 °F 57% 29.94 in 10.0 mi East 8.1 mph - N/A   Mostly Cloudy
5:56 PM 86.0 °F 90.1 °F 69.1 °F 57% 29.94 in 10.0 mi East 4.6 mph - N/A   Mostly Cloudy
6:56 PM 86.0 °F 90.1 °F 69.1 °F 57% 29.95 in 10.0 mi East 8.1 mph - N/A   Partly Cloudy
7:56 PM 82.9 °F 85.8 °F 68.0 °F 60% 29.96 in 10.0 mi East 3.5 mph - N/A   Clear
8:56 PM 81.0 °F 83.8 °F 68.0 °F 65% 29.98 in 10.0 mi ESE 3.5 mph - N/A   Clear
9:56 PM 79.0 °F - 68.0 °F 69% 30.01 in 10.0 mi East 3.5 mph - N/A   Clear
10:56 PM 77.0 °F - 68.0 °F 74% 30.01 in 10.0 mi Calm Calm - N/A   Clear
11:56 PM 77.0 °F - 68.0 °F 74% 30.02 in 10.0 mi Calm Calm - N/A   Clear